Карточка аэропорта UMGG

Внимание!
Информация на этой странице в стадии наполнения.
Если вы не увидели какой-то информации, или заметили неточность - пожалуйста сообщите нам!
Спасибо!
Команда XR-STAFF
Название аэропортаGomel
Название аэропорта (англ.)Gomel
Превышение471 ft. (143.6 m.)
Координаты52°31.614', 31°1.002'
Высота перехода6000 ft
Эшелон переходаQNH>=733mm:FL80; QNH<733mm:FL90
Коды ответчика0030−0032
Зона ОрВДМинск РПИ (UMMV)
Данные METARUMGG 232000Z 29003MPS CAVOK 10/04 Q1010 NOSIG
Проноз погоды (TAF)UMGG 231700Z 2318/2418 32005MPS CAVOK TEMPO 2407/2416 33007G12MPS
NOTAMshow/hide NOTAM
AWOS   TABLE

Информация о ВПП

ВПП Длина ВПП (м.) Покрытие Курс ВПП Частота ILS
102569Цементобетон103109.3
282569Цементобетон283108.7

Диспетчерские позиции

Позывной Наименование органа УВД Частота
UMGG_APPHomiel Approach126.100
UMGG_TWRHomiel Tower118.100



Спутниковое изображение